Location: Newark
(35.6799°N, 139.7636°E)
Time: 22:44:44
(UTC+00:00)

Courier 1B Rocket - Pass Details

Date: 13 December 2019
Orbit: 920 x 1202 km, 28.2° (Epoch: 20 January)

Event Time Altitude Azimuth Distance (km) Brightness Sun altitude
Exits shadow 17:35:45 12° 126° (SE) 2,800 7.7 -49.1°
Drops below altitude 10° 17:36:36 10° 119° (ESE) 2,935 7.9 -48.9°
Sets 17:40:33 0° 99° (E) 3,832 8.8 -48.1°
